Location: Davidson Heights
(40.5834°N, 80.2598°W)
Time: 18:12:57
(UTC+00:00)

Hubble Space Telescope - Pass Details

Date: 04 December 2020
Orbit: 536 x 539 km, 28.5° (Epoch: 15 January)

Event Time Altitude Azimuth Distance (km) Brightness Sun altitude
Rises 00:24:10 0° 235° (SW) 2,665 5.2 -27.8°
Reaches altitude 10° 00:27:14 10° 211° (SSW) 1,775 3.8 -28.4°
Enters shadow 00:28:11 13° 198° (SSW) 1,603 3.4 -28.6°
